[[{"header":{"parameterUnit":"m.s-1","parameterCategory":1,"la1":30.2991,"la2":30.254,"lo1":-89.0895,"lo2":-89.0444,"dy":0.0017,"dx":0.0017,"nx":28,"ny":28,"refTime":"2024-08-31T21:00:00:Z","depth":0,"parameterNumber":2,"parameterNumberName":"U-component_of_WINDS"},"data":[0,0,0,0,0,0,0,0,0,0,0,0,0,0,0,0,0,0,0,0,0,0,0,0,0,0,0,0,0,0,0,0,0,0,0,0,0,0,0,0,0,0,0,0,0,0,0,0,0,0,0,0,0,0,0,0,0,0,-3.3679,-3.368,0,-3.3784,-3.3785,-3.3786,-3.382,-3.3819,-3.3819,-3.3818,-3.3916,-3.3919,-3.3922,0,0,0,0,0,0,0,0,0,0,0,0,0,-3.3497,-3.35,-3.3679,-3.368,-3.3681,-3.3784,-3.3785,-3.3787,-3.382,-3.3819,-3.3819,-3.3818,-3.3915,-3.3918,-3.3922,0,0,0,0,0,0,0,0,0,0,0,0,0,-3.3586,-3.3501,-3.3678,-3.371,-3.3714,-3.3783,-3.3785,-3.3787,-3.382,-3.3819,-3.3818,-3.3818,-3.3913,-3.3918,-3.3922,-3.3964,0,0,-3.3936,-3.3938,0,0,0,0,0,0,0,0,-3.3581,-3.3593,-3.3704,-3.3708,-3.3713,-3.3788,-3.3757,-3.3846,-3.382,-3.3779,-3.3818,-3.3818,-3.3873,-3.3881,-3.3902,-3.3968,-3.3973,-3.3936,-3.3939,-3.3941,-3.3942,0,0,0,0,0,0,0,-3.3575,-3.3588,-3.372,-3.3706,-3.3711,-3.3716,-3.3728,-3.3774,-3.3828,-3.3783,-3.3786,-3.3798,-3.3875,-3.3897,-3.3904,-3.3974,-3.3936,-3.394,-3.3943,-3.3945,-3.408,-3.4081,0,0,0,0,0,0,-3.3564,-3.3583,-3.3717,-3.3723,-3.3644,-3.372,-3.3734,-3.3764,-3.3828,-3.3837,-3.3799,-3.3799,-3.389,-3.3899,-3.3908,-3.3961,-3.3941,-3.3945,-3.3948,-3.4079,-3.408,-3.4081,0,0,0,0,0,0,-3.356,-3.3576,-3.3712,-3.3654,-3.3672,-3.3724,-3.3759,-3.3767,-3.3789,-3.384,-3.3849,-3.3812,-3.389,-3.3901,-3.3951,-3.3965,-3.3947,-3.3952,-3.4078,-3.408,-3.4081,-3.4067,0,0,0,0,0,0,-3.3555,-3.3575,-3.3593,-3.3654,-3.3675,-3.3756,-3.376,-3.3769,-3.3798,-3.38,-3.3855,-3.3863,-3.389,-3.3944,-3.3955,-3.3971,-3.3955,-3.4077,-3.4079,-3.408,-3.4067,-3.4068,-3.4069,0,0,0,0,0,-3.3549,-3.3582,-3.3594,-3.361,-3.3699,-3.3757,-3.3768,-3.3801,-3.3799,-3.3817,-3.385,-3.3862,-3.3962,-3.3948,-3.3961,-3.3979,-3.4076,-3.4078,-3.408,-3.4066,-3.4068,-3.4069,0,0,0,0,0,0,-3.3517,-3.3591,-3.3604,-3.366,-3.3702,-3.3762,-3.3785,-3.3802,-3.3843,-3.3843,-3.3879,-3.3891,-3.3937,-3.3963,-3.3947,-3.4022,-3.4019,-3.4024,-3.4004,-3.4006,-3.4007,-3.3999,-3.3959,0,0,0,0,0,-3.3518,-3.3561,-3.3622,-3.3665,-3.3686,-3.3732,-3.3758,-3.3781,-3.3825,-3.3842,-3.3878,-3.3917,-3.3958,-3.3983,-3.4023,-3.4071,-3.4083,-3.4089,-3.409,-3.4091,-3.4094,-3.4121,-3.4125,-3.4088,-3.4088,-3.4088,0,0,-3.3517,-3.3563,-3.3587,-3.366,-3.3695,-3.3737,-3.3747,-3.379,-3.3821,-3.3847,-3.3897,-3.3925,-3.3971,-3.402,-3.4043,-3.4042,-3.4107,-3.4094,-3.4094,-3.4097,-3.4123,-3.4127,-3.413,-3.4089,-3.4089,-3.4089,0,0,-3.3537,-3.3577,-3.3618,-3.3654,-3.371,-3.3741,-3.375,-3.3809,-3.383,-3.3881,-3.3902,-3.3937,-3.4006,-3.4038,-3.4064,-3.4099,-3.4111,-3.411,-3.4116,-3.4142,-3.4145,-3.4147,-3.4159,-3.4163,-3.4114,-3.4114,-3.4114,0,-3.3528,-3.3596,-3.3635,-3.3679,-3.371,-3.374,-3.378,-3.3812,-3.3876,-3.3895,-3.3894,-3.3983,-3.4016,-3.4073,-3.4082,-3.4101,-3.4112,-3.4104,-3.4142,-3.4145,-3.4148,-3.416,-3.4164,-3.4113,-3.4113,-3.4113,-3.4113,0,-3.3582,-3.3628,-3.3654,-3.372,-3.3753,-3.3794,-3.3837,-3.3866,-3.3886,-3.3916,-3.3967,-3.4008,-3.4057,-3.4073,-3.409,-3.4132,-3.413,-3.4135,-3.4133,-3.415,-3.4162,-3.4167,-3.4113,-3.4113,-3.4113,-3.4113,0,0,-3.3584,-3.3674,-3.3682,-3.3713,-3.3777,-3.3812,-3.3853,-3.3906,-3.3929,-3.3972,-3.4006,-3.4065,-3.4071,-3.41,-3.4122,-3.4145,-3.4169,-3.4147,-3.4149,-3.4149,-3.4217,-3.4212,-3.4216,-3.4179,-3.418,-3.418,-3.4213,0,-3.3613,-3.3693,-3.3731,-3.3793,-3.3835,-3.3865,-3.3902,-3.3943,-3.3972,-3.401,-3.4041,-3.4082,-3.4087,-3.4105,-3.4129,-3.4161,-3.4183,-3.416,-3.4208,-3.421,-3.4195,-3.4223,-3.4217,-3.4246,-3.4217,-3.4218,-3.4219,0,-3.3656,-3.3704,-3.3772,-3.3833,-3.3852,-3.3884,-3.3935,-3.3972,-3.4019,-3.4038,-3.4072,-3.4094,-3.4136,-3.4132,-3.419,-3.4173,-3.4195,-3.4214,-3.4216,-3.422,-3.4214,-3.4227,-3.4256,-3.426,-3.4226,-3.4226,-3.4225,0,-3.3651,-3.3731,-3.3783,-3.3808,-3.388,-3.3902,-3.3932,-3.3979,-3.4008,-3.4051,-3.407,-3.4117,-3.4141,-3.4176,-3.4208,-3.4202,-3.4263,-3.4261,-3.4278,-3.4277,-3.4288,-3.4287,-3.432,-3.4304,-3.4304,-3.4304,-3.4304,0,-3.3678,-3.3718,-3.3782,-3.3813,-3.3858,-3.39,-3.3942,-3.3974,-3.4016,-3.4052,-3.4079,-3.4111,-3.4154,-3.419,-3.4216,-3.4259,-3.427,-3.4285,-3.4292,-3.4283,-3.4281,-3.4297,-3.4295,-3.4305,-3.4305,-3.4304,-3.4304,0,-3.3679,-3.3723,-3.3781,-3.3846,-3.3863,-3.3893,-3.3947,-3.3977,-3.4009,-3.4054,-3.4067,-3.4115,-3.416,-3.4197,-3.4254,-3.4271,-3.4317,-3.4324,-3.4302,-3.4305,-3.432,-3.4318,-3.4363,-3.4371,-3.4351,-3.4351,-3.4351,0,-3.3693,-3.3726,-3.3795,-3.3823,-3.3854,-3.3898,-3.393,-3.3971,-3.4002,-3.4059,-3.4081,-3.413,-3.417,-3.424,-3.4278,-3.4322,-3.433,-3.4343,-3.4337,-3.4327,-3.433,-3.4327,-3.433,-3.4343,-3.4343,-3.4343,-3.4343,0,-3.3714,-3.3735,-3.3781,-3.3835,-3.3872,-3.3915,-3.3959,-3.3979,-3.4028,-3.4061,-3.411,-3.4141,-3.4202,-3.4249,-3.4297,-3.4325,-3.4341,-3.4346,-3.4352,-3.4342,-3.4328,-3.4336,-3.4303,-3.4344,-3.4344,-3.4344,-3.4344,-3.4344,-3.3721,-3.3752,-3.3806,-3.3856,-3.3895,-3.3935,-3.3967,-3.4005,-3.4047,-3.4103,-3.4124,-3.4173,-3.4219,-3.4287,-3.4315,-3.4352,-3.4353,-3.4362,-3.4364,-3.4366,-3.4364,-3.4324,-3.4361,-3.4361,-3.4361,-3.4361,-3.4361,0,-3.3743,-3.378,-3.3826,-3.3889,-3.3928,-3.3945,-3.3994,-3.4024,-3.4069,-3.4112,-3.4153,-3.4208,-3.4253,-3.4296,-3.4343,-3.4365,-3.4373,-3.4375,-3.4373,-3.4379,-3.436,-3.435,-3.4368,-3.4368,-3.4368,-3.4368,-3.4368,-3.4368,-3.3759,-3.3812,-3.3839,-3.391,-3.3946,-3.3998,-3.4025,-3.4061,-3.4096,-3.4158,-3.4198,-3.4227,-3.4269,-3.432,-3.4362,-3.4373,-3.4388,-3.4388,-3.4401,-3.4382,-3.4381,-3.438,-3.437,-3.4391,-3.4391,-3.4417,-3.4417,-3.4417]},{"header":{"parameterUnit":"m.s-1","parameterCategory":1,"la1":30.2991,"la2":30.254,"lo1":-89.0895,"lo2":-89.0444,"dy":0.0017,"dx":0.0017,"nx":28,"ny":28,"refTime":"2024-08-31T21:00:00:Z","depth":0,"parameterNumber":3,"parameterNumberName":"V-component_of_WINDS"},"data":[0,0,0,0,0,0,0,0,0,0,0,0,0,0,0,0,0,0,0,0,0,0,0,0,0,0,0,0,0,0,0,0,0,0,0,0,0,0,0,0,0,0,0,0,0,0,0,0,0,0,0,0,0,0,0,0,0,0,-0.7979,-0.798,0,-0.8108,-0.811,-0.8111,-0.8111,-0.8109,-0.8108,-0.8106,-0.8247,-0.8252,-0.8258,0,0,0,0,0,0,0,0,0,0,0,0,0,-0.774,-0.7744,-0.7979,-0.798,-0.7982,-0.8108,-0.811,-0.8111,-0.8111,-0.8109,-0.8107,-0.8105,-0.8245,-0.8252,-0.8258,0,0,0,0,0,0,0,0,0,0,0,0,0,-0.7854,-0.7746,-0.7979,-0.7997,-0.8,-0.8108,-0.811,-0.8112,-0.8112,-0.8109,-0.8107,-0.8104,-0.8243,-0.8251,-0.8259,-0.836,0,0,-0.8284,-0.8287,0,0,0,0,0,0,0,0,-0.7848,-0.7863,-0.7993,-0.7996,-0.7999,-0.8091,-0.8077,-0.8195,-0.8112,-0.807,-0.8106,-0.8103,-0.8198,-0.8209,-0.8239,-0.8366,-0.8372,-0.8284,-0.8289,-0.8293,-0.8295,0,0,0,0,0,0,0,-0.784,-0.7857,-0.803,-0.7995,-0.7999,-0.8001,-0.8015,-0.81,-0.8147,-0.8073,-0.8073,-0.8088,-0.8199,-0.8232,-0.8243,-0.8375,-0.8284,-0.8291,-0.8296,-0.8299,-0.8591,-0.8594,0,0,0,0,0,0,-0.7827,-0.7851,-0.8026,-0.8034,-0.7915,-0.8008,-0.8023,-0.8064,-0.8146,-0.8155,-0.809,-0.8088,-0.8219,-0.8233,-0.8248,-0.8372,-0.8292,-0.83,-0.8305,-0.8588,-0.8592,-0.8595,0,0,0,0,0,0,-0.7822,-0.7842,-0.8021,-0.7943,-0.7965,-0.8014,-0.8061,-0.8068,-0.81,-0.8158,-0.8168,-0.8114,-0.8218,-0.8237,-0.8331,-0.8377,-0.8304,-0.8311,-0.8585,-0.859,-0.8594,-0.862,0,0,0,0,0,0,-0.7815,-0.7841,-0.7878,-0.7943,-0.7969,-0.81,-0.8064,-0.8072,-0.8113,-0.8111,-0.8184,-0.8193,-0.8217,-0.8319,-0.8339,-0.8386,-0.8317,-0.8581,-0.8587,-0.8592,-0.8615,-0.8625,-0.8633,0,0,0,0,0,-0.7806,-0.7882,-0.7879,-0.7901,-0.8016,-0.8103,-0.8118,-0.8142,-0.8117,-0.8156,-0.8193,-0.8191,-0.8368,-0.8329,-0.8352,-0.8402,-0.8579,-0.8585,-0.8592,-0.8611,-0.8623,-0.8632,0,0,0,0,0,0,-0.7824,-0.7891,-0.7889,-0.7987,-0.8039,-0.8102,-0.8152,-0.8153,-0.8215,-0.8211,-0.824,-0.8256,-0.8351,-0.8386,-0.8342,-0.8504,-0.8471,-0.8482,-0.8478,-0.8489,-0.8498,-0.8488,-0.8324,0,0,0,0,0,-0.7838,-0.79,-0.7956,-0.8038,-0.8063,-0.8103,-0.8142,-0.8155,-0.8211,-0.8234,-0.8278,-0.8335,-0.8403,-0.8448,-0.8514,-0.862,-0.8636,-0.8665,-0.8674,-0.8681,-0.8691,-0.875,-0.8764,-0.8617,-0.8617,-0.8617,0,0,-0.7871,-0.7915,-0.7953,-0.8042,-0.8084,-0.815,-0.8122,-0.8193,-0.8243,-0.8246,-0.8337,-0.8372,-0.8437,-0.8538,-0.8584,-0.857,-0.8735,-0.8689,-0.8694,-0.8701,-0.8759,-0.8773,-0.8785,-0.8621,-0.8621,-0.862,0,0,-0.7963,-0.8002,-0.8074,-0.8115,-0.8177,-0.8203,-0.822,-0.8283,-0.8305,-0.8397,-0.84,-0.8461,-0.8578,-0.8625,-0.8664,-0.8772,-0.8773,-0.8793,-0.884,-0.8897,-0.8909,-0.8919,-0.8959,-0.8973,-0.8803,-0.8803,-0.8803,0,-0.7996,-0.8093,-0.8112,-0.8182,-0.8223,-0.8224,-0.8299,-0.8339,-0.8421,-0.845,-0.8431,-0.8577,-0.8622,-0.8734,-0.876,-0.8791,-0.8813,-0.8786,-0.8905,-0.8916,-0.8926,-0.8964,-0.8979,-0.8805,-0.8804,-0.8804,-0.8804,0,-0.8131,-0.8198,-0.8249,-0.8324,-0.837,-0.8443,-0.8475,-0.852,-0.8529,-0.8557,-0.8651,-0.8704,-0.8781,-0.8808,-0.8819,-0.8922,-0.8911,-0.8898,-0.8866,-0.8941,-0.8978,-0.8993,-0.8808,-0.8807,-0.8806,-0.8806,0,0,-0.824,-0.8323,-0.8342,-0.8376,-0.8444,-0.8498,-0.8571,-0.8642,-0.8681,-0.8737,-0.8801,-0.8899,-0.8887,-0.8931,-0.8947,-0.8997,-0.9081,-0.8979,-0.8981,-0.8997,-0.92,-0.921,-0.9226,-0.9081,-0.9084,-0.9086,-0.9194,0,-0.8341,-0.8467,-0.8486,-0.8599,-0.8662,-0.8664,-0.8728,-0.8778,-0.8806,-0.8866,-0.8899,-0.8968,-0.8946,-0.8973,-0.9022,-0.906,-0.9122,-0.9052,-0.9143,-0.9146,-0.9128,-0.9245,-0.9257,-0.9356,-0.9209,-0.9211,-0.9213,0,-0.8476,-0.8532,-0.865,-0.8708,-0.8736,-0.8793,-0.886,-0.8916,-0.8973,-0.8991,-0.9039,-0.9048,-0.9127,-0.9089,-0.9199,-0.915,-0.9189,-0.9213,-0.9217,-0.9229,-0.9186,-0.9262,-0.9389,-0.9404,-0.9236,-0.9234,-0.9232,0,-0.8545,-0.865,-0.8735,-0.8764,-0.8834,-0.8874,-0.8906,-0.896,-0.9002,-0.9062,-0.909,-0.9159,-0.9197,-0.9252,-0.9281,-0.925,-0.9389,-0.9353,-0.9408,-0.9407,-0.9439,-0.9437,-0.9576,-0.946,-0.946,-0.946,-0.9459,0,-0.8656,-0.8729,-0.8766,-0.8819,-0.8901,-0.8922,-0.9004,-0.9035,-0.9083,-0.9143,-0.915,-0.9207,-0.924,-0.9303,-0.9326,-0.9414,-0.9431,-0.9449,-0.9455,-0.945,-0.9448,-0.9477,-0.9471,-0.9464,-0.9463,-0.9462,-0.9461,0,-0.8748,-0.8776,-0.8868,-0.8926,-0.8942,-0.9,-0.9051,-0.9103,-0.913,-0.9206,-0.9226,-0.9269,-0.9343,-0.9376,-0.9468,-0.9484,-0.9585,-0.9585,-0.9565,-0.9567,-0.962,-0.9615,-0.9784,-0.9808,-0.9675,-0.9676,-0.9677,0,-0.8818,-0.8874,-0.8937,-0.8976,-0.9007,-0.9071,-0.9113,-0.9137,-0.9181,-0.9249,-0.9294,-0.9367,-0.9427,-0.9545,-0.9587,-0.9657,-0.966,-0.9714,-0.9671,-0.9664,-0.9663,-0.966,-0.9667,-0.9723,-0.9724,-0.9726,-0.9726,0,-0.894,-0.8951,-0.9009,-0.9073,-0.9122,-0.9174,-0.9225,-0.9257,-0.929,-0.9339,-0.9413,-0.9459,-0.9551,-0.9625,-0.9698,-0.9733,-0.9737,-0.9739,-0.9756,-0.9752,-0.9739,-0.9748,-0.9588,-0.9736,-0.9735,-0.9734,-0.9734,-0.9733,-0.9025,-0.9074,-0.9126,-0.9191,-0.9231,-0.9278,-0.933,-0.9362,-0.9423,-0.9498,-0.9508,-0.9588,-0.9644,-0.9742,-0.978,-0.9844,-0.9832,-0.9855,-0.9862,-0.9868,-0.9871,-0.9726,-0.9858,-0.9857,-0.9857,-0.9857,-0.9857,0,-0.9149,-0.9181,-0.924,-0.931,-0.9362,-0.9356,-0.9412,-0.9457,-0.9525,-0.9576,-0.9634,-0.9719,-0.979,-0.9836,-0.9908,-0.9951,-0.9954,-0.997,-0.9968,-0.9976,-0.9878,-0.9857,-0.9966,-0.9966,-0.9966,-0.9966,-0.9965,-0.9965,-0.9219,-0.9302,-0.9319,-0.9423,-0.9456,-0.9531,-0.9563,-0.9608,-0.9648,-0.9742,-0.98,-0.9828,-0.9878,-0.9954,-1.0019,-1.0031,-1.0059,-1.0075,-1.0087,-0.9994,-0.9983,-0.9972,-0.9953,-1.008,-1.008,-1.018,-1.0181,-1.0181]}]]